Weather History for KUIN - April, 2013

Change the Weather History Date:

Friday, April 19, 2013

  Actual Average Record
Temperature  
Mean Temperature 40 °F 55 °F  
Max Temperature 47 °F 65 °F 85 °F (1925)
Min Temperature 33 °F 44 °F 26 °F (1983)
Degree Days  
Heating Degree Days 25 11  
Month to date heating degree days 295 267  
Since 1 July heating degree days 5348 5327  
Cooling Degree Days 0 1  
Month to date cooling degree days 4 6  
Year to date cooling degree days 4 8  
Moisture  
Dew Point 26 °F    
Average Humidity 60    
Maximum Humidity 75    
Minimum Humidity 45    
Precipitation  
Precipitation 0.00 in 0.13 in 1.79 in (1972)
Month to date precipitation 5.69 2.24  
Year to date precipitation 13.31 8.10  
Sea Level Pressure  
Sea Level Pressure 29.84 in    
Wind  
Wind Speed 16 mph (West)    
Max Wind Speed 30 mph    
Max Gust Speed 37 mph    
Visibility 10 miles    
Events      
T = Trace of Precipitation, MM = Missing Value Source: NWS Daily Summary

Daily Weather History Graph

Daily Weather History Graph

Search for Another Location

Airport or City:

Trip Planner

Search our weather history database for the weather conditions in past years. The results will help you decide how hot, cold, wet, or windy it might be!

Date:

Astronomy

Apr. 19, 2013 Rise Set
Actual Time 6:20 AM CDT 7:47 PM CDT
Civil Twilight 5:52 AM CDT 8:15 PM CDT
Nautical Twilight 5:18 AM CDT 8:50 PM CDT
Astronomical Twilight 4:42 AM CDT 9:26 PM CDT
Moon 1:32 PM CDT (4/19) 2:36 AM CDT (4/19)
Length of Visible Light 14h 23m
Length of Day
13h 26m
First Quarter, 62% of the Moon is Illuminated
Apr 19
First Quarter
Apr 25
Full
May 2
Last Quarter
May 9
New
May 17
First Quarter

Hourly Weather History & Observations

Time (CDT) Temp. Windchill Dew Point Humidity Pressure Visibility Wind Dir Wind Speed Gust Speed Precip Events Conditions
12:54 AM 37.9 °F 28.5 °F 28.9 °F 70% 29.73 in 10.0 mi West 17.3 mph 28.8 mph N/A   Overcast
1:54 AM 37.0 °F 28.1 °F 28.0 °F 70% 29.73 in 10.0 mi West 15.0 mph 25.3 mph N/A   Overcast
2:54 AM 37.0 °F 26.7 °F 27.0 °F 67% 29.73 in 10.0 mi WNW 19.6 mph 27.6 mph N/A   Overcast
3:21 AM 37.4 °F 27.2 °F 26.6 °F 65% 29.72 in 10.0 mi West 19.6 mph 28.8 mph N/A   Overcast
3:54 AM 37.0 °F 27.0 °F 27.0 °F 67% 29.73 in 10.0 mi West 18.4 mph 27.6 mph N/A   Overcast
4:09 AM 35.6 °F 25.5 °F 26.6 °F 70% 29.72 in 10.0 mi West 17.3 mph 29.9 mph N/A   Overcast
4:54 AM 36.0 °F 27.1 °F 27.0 °F 70% 29.74 in 10.0 mi West 13.8 mph 31.1 mph N/A   Unknown
5:13 AM 35.6 °F 25.2 °F 26.6 °F 70% 29.73 in 10.0 mi West 18.4 mph 26.5 mph N/A   Overcast
5:21 AM 35.6 °F 25.9 °F 26.6 °F 70% 29.73 in 10.0 mi West 16.1 mph 26.5 mph N/A   Overcast
5:54 AM 35.1 °F 24.8 °F 26.1 °F 70% 29.75 in 10.0 mi West 17.3 mph 24.2 mph N/A   Overcast
6:54 AM 36.0 °F 25.3 °F 26.1 °F 67% 29.77 in 10.0 mi West 19.6 mph 24.2 mph N/A   Overcast
7:54 AM 36.0 °F 28.0 °F 26.1 °F 67% 29.79 in 10.0 mi West 11.5 mph 20.7 mph N/A   Overcast
8:54 AM 36.0 °F 26.3 °F 27.0 °F 70% 29.80 in 10.0 mi West 16.1 mph 24.2 mph N/A   Overcast
9:27 AM 35.6 °F 25.5 °F 26.6 °F 70% 29.78 in 10.0 mi West 17.3 mph 26.5 mph N/A   Overcast
9:54 AM 36.0 °F 26.0 °F 26.1 °F 67% 29.80 in 10.0 mi West 17.3 mph 26.5 mph N/A   Overcast
10:26 AM 37.4 °F 27.5 °F 26.6 °F 65% 29.80 in 10.0 mi West 18.4 mph 31.1 mph N/A   Overcast
10:54 AM 37.9 °F 27.1 °F 26.1 °F 62% 29.82 in 10.0 mi West 23.0 mph 31.1 mph N/A   Overcast
11:54 AM 39.0 °F 28.5 °F 26.1 °F 60% 29.83 in 10.0 mi WNW 23.0 mph 27.6 mph N/A   Overcast
12:54 PM 41.0 °F 32.5 °F 26.1 °F 55% 29.84 in 10.0 mi WNW 17.3 mph 32.2 mph N/A   Overcast
1:54 PM 43.0 °F 34.5 °F 27.0 °F 53% 29.85 in 10.0 mi WNW 19.6 mph 24.2 mph N/A   Overcast
2:54 PM 44.1 °F 35.2 °F 27.0 °F 51% 29.86 in 10.0 mi WNW 23.0 mph 27.6 mph N/A   Overcast
3:54 PM 45.0 °F 36.4 °F 28.0 °F 52% 29.87 in 10.0 mi WNW 23.0 mph 28.8 mph N/A   Overcast
4:54 PM 46.0 °F 38.5 °F 26.1 °F 46% 29.90 in 10.0 mi West 19.6 mph 29.9 mph N/A   Overcast
5:54 PM 45.0 °F 36.6 °F 25.0 °F 46% 29.93 in 10.0 mi WNW 21.9 mph 29.9 mph N/A   Overcast
6:54 PM 45.0 °F 37.4 °F 25.0 °F 46% 29.95 in 10.0 mi West 18.4 mph 29.9 mph N/A   Overcast
7:54 PM 43.0 °F 36.0 °F 24.1 °F 47% 29.98 in 10.0 mi West 13.8 mph 20.7 mph N/A   Mostly Cloudy
8:54 PM 41.0 °F 35.2 °F 25.0 °F 53% 30.01 in 10.0 mi WNW 9.2 mph - N/A   Clear
9:54 PM 39.0 °F 32.8 °F 26.1 °F 60% 30.04 in 10.0 mi WNW 9.2 mph - N/A   Clear
10:54 PM 37.0 °F 30.4 °F 26.1 °F 65% 30.06 in 10.0 mi NW 9.2 mph - N/A   Clear
11:54 PM 34.0 °F 28.8 °F 26.1 °F 73% 30.08 in 10.0 mi NW 5.8 mph - N/A   Clear